Starlink 11417

operational
NORAD ID: 62983 Int'l Des: 2025-031 Owner: SPXS Country: US Constellation: starlink
LEOCIRCULAR

Über Starlink 11417

Beschreibung wird geladen...

Live-Position

3D-Globus wird geladen...

Nächste Überflüge

Höhenverlauf

Altitude vs Time

uPlot chart will show altitude changes over time

Zweizeiliger Elementsatz

1 62983U 25031C 25352.40339267 .00248638 00000-0 18673-2 0 9998
2 62983 42.9990 131.8331 0000969 299.8145 60.2626 15.71049144 49950
Epoch: 18. Dez. 2025 • Age: 17 hours

Aktueller Status

Höhe 355.1 km
Geschwindigkeit 7.70 km/s
Subsatellitenpunkt -5.25°S, 2.41°W
Startdatum 11. Feb. 2025
Alter 0.8 years
Typ internet

Technische Details

Klassifizierung Payload
Masse 960.00 kg
Trockenmasse 910.00 kg
Gesamtmasse 960.00 kg
Länge 0.30 m
Durchmesser 4.10 m
Spannweite 29.00 m
Form Box + pan
Hersteller SPXS
Bus-Typ Starlink V2MD
Phasenstatus In Orbit
Besitzer/Staat SPXS/US

Große Konstellationen

Loading constellations...